Main page
METAR-TAF:

METAR-TAF

Airports :

Oil platform

Ula, Norway

latitude: 59-06-39N, longitude: 2-50-45E, elevation: 0 m

Current weather observation

The report was made 18 minutes ago, at 04:20 UTC
Wind 17 kt from the South
Temperature 13°C
Humidity 100%
Pressure 1007 hPa
Visibility: 4500 m
mist

METAR: ENLA 190420Z AUTO 19017KT 4500NDV BR OVC024/// 13/13 Q1007 W///S4

Time: 06:38 (04:38 UTC)


TAF: missing

Weather observations and forecasts of more than 4000 airports (METAR and TAF reports).

The available stations are represented by yellow and red dots on the map.

Hover mouse over dot to see the name of the station.

Then click to see weather observations and forecasts.

To change the map : click on the green buttons with a black cross to zoom in, on the green button with a dash to zoom out, or on the green arrows for adjacent maps.


METAR-TAF: